Temp
19 20 20 20 20 20 20 20 20 20 20 20 21 21 21 21 22 22 22 21 21 20 20 19 19 19 18 18 18 18 18 17 17 17 17 16 16 16 17 17 17 17 17
18 20 20 21 21 21 21 20 20 20 20 20 20 20 21 22 22 22 22 22 21 21 21 20 20 19 19 18 18 18 18 18 17 17 17 17 16 16 16 16 17 17 17
18 19 20 20 21 21 20 19 20 20 20 20 20 20 20 20 20 21 21 22 21 20 20 20 20 19 19 19 18 17 17 18 18 17 17 17 17 16 16 16 16 16 17
17 18 20 21 20 20 21 21 21 21 20 20 20 20 20 21 22 21 21 22 21 21 20 20 20 20 19 18 19 18 18 17 17 17 16 16 16 16 16 16 16 16 16
17 18 20 20 20 20 21 20 20 19 20 20 19 20 20 21 21 22 21 21 21 21 21 20 20 19 19 19 19 18 17 17 16 17 17 17 17 16 16 16 16 16 16
19 18 19 19 19 20 19 19 19 19 18 19 21 21 21 22 22 21 22 22 21 21 20 20 19 20 20 19 19 19 18 17 17 18 18 18 17 17 16 16 16 16 16
18 18 19 19 19 19 19 19 19 19 19 20 20 21 21 21 21 22 22 21 21 20 21 20 20 20 19 19 19 19 18 18 18 17 17 17 17 17 16 16 16 16 16
18 18 19 19 19 19 19 19 18 18 20 21 20 21 21 23 22 21 23 22 21 21 21 20 20 20 19 19 19 19 18 18 18 18 18 17 17 18 17 17 17 16 16
20 19 18 19 18 18 20 19 18 19 19 20 21 21 22 23 22 23 23 22 22 21 21 21 21 21 19 19 18 19 19 19 19 19 17 17 17 18 18 17 17 16 16
19 19 19 19 19 19 20 19 19 19 19 20 22 22 21 21 21 21 23 23 22 23 22 22 22 21 20 19 19 19 19 19 19 19 18 19 18 18 18 17 17 17 16
21 20 20 20 19 20 20 19 19 18 19 19 19 20 21 21 22 22 22 22 22 21 22 22 22 21 20 19 19 19 19 20 19 19 19 18 18 18 18 17 17 17 16
20 20 19 19 20 19 19 19 19 19 19 19 19 19 20 20 21 21 21 22 22 22 21 21 21 20 19 19 19 19 19 19 20 19 19 18 18 18 18 17 17 16 16
23 22 20 19 20 20 19 19 19 20 19 19 19 18 19 19 20 20 21 21 22 22 22 21 21 21 20 19 19 19 19 19 19 19 19 19 19 18 18 17 17 16 16
23 22 21 21 20 19 19 19 19 20 19 19 19 18 18 19 20 20 21 21 22 23 23 22 22 22 21 20 19 18 18 19 19 19 19 18 18 18 18 17 17 17 16
22 21 20 20 20 19 19 19 19 19 19 18 19 19 18 19 18 19 20 20 21 21 22 23 22 22 20 20 19 18 18 19 19 19 19 18 18 18 17 17 17 16 16
20 20 20 20 20 20 19 18 18 19 18 18 18 18 18 17 17 18 19 19 19 19 19 19 20 21 20 19 19 19 18 18 18 18 19 18 18 18 18 17 17 17 17
20 21 20 21 20 18 18 18 18 18 18 18 17 17 16 16 17 18 18 18 18 18 18 20 21 20 18 18 18 18 18 18 18 17 18 17 17 17 17 17 17 17 17
19 19 18 18 17 17 17 17 16 16 16 17 16 17 17 17 17 17 17 17 17 17 18 18 18 18 18 17 17 18 17 18 18 16 16 16 17 16 17 17 17 17 17
19 19 19 19 18 17 17 16 16 16 16 16 16 16 16 16 16 17 17 17 17 17 17 17 17 18 18 16 16 17 16 17 17 16 15 15 16 15 16 16 16 16 16
20 19 19 18 17 17 17 15 16 15 16 16 16 15 15 16 16 16 16 16 16 16 17 16 16 16 17 16 16 16 16 16 17 16 15 16 16 15 16 16 16 16 16
18 17 17 16 17 17 17 16 15 15 15 16 14 13 15 15 15 15 15 15 16 15 15 16 15 16 15 15 14 14 14 14 14 15 15 15 15 14 14 15 15 15 15
18 17 17 17 17 16 16 16 13 14 15 15 15 12 12 14 12 13 13 13 13 14 14 14 14 14 14 13 13 12 12 12 12 14 14 14 13 14 14 14 13 14 15
17 17 16 16 16 15 15 15 12 12 12 12 11 11 11 13 13 12 12 11 12 13 12 12 12 12 12 11 12 12 12 12 11 11 12 12 12 13 12 12 12 13 14
14 12 14 15 15 15 15 13 13 12 11 12 12 11 11 13 13 12 12 12 11 13 13 12 12 12 11 11 11 11 11 11 11 10 11 10 11 11 12 12 11 11 11
13 12 12 12 14 14 14 13 14 14 13 12 11 11 12 12 12 11 11 11 11 11 12 12 12 12 12 11 11 11 11 11 12 12 11 10 11 10 11 12 12 12 12
13 12 12 13 14 14 14 14 14 14 12 12 11 10 11 11 11 11 10 11 11 11 11 11 11 11 11 11 11 11 10 11 11 11 11 10 10 10 10 11 10 10 10
Height
1579 1582 1583 1583 1582 1582 1582 1581 1580 1580 1579 1578 1578 1578 1577 1577 1576 1576 1573 1573 1574 1575 1575 1575 1575 1575 1576 1576 1577 1578 1578 1578 1580 1581 1583 1586 1588 1591 1593 1595 1596 1599 1600
1579 1583 1582 1583 1582 1582 1582 1581 1580 1579 1578 1577 1576 1575 1575 1574 1574 1574 1573 1570 1570 1571 1571 1571 1572 1573 1574 1575 1576 1576 1576 1577 1577 1578 1581 1583 1586 1589 1591 1594 1596 1596 1598
1582 1580 1582 1582 1581 1581 1580 1579 1578 1577 1576 1575 1573 1572 1571 1570 1570 1570 1571 1571 1568 1569 1568 1568 1568 1570 1571 1571 1568 1570 1572 1574 1575 1576 1577 1580 1582 1585 1588 1591 1593 1595 1596
1579 1580 1581 1581 1579 1580 1580 1579 1578 1577 1575 1573 1571 1569 1568 1567 1568 1568 1568 1568 1567 1565 1564 1566 1566 1567 1568 1568 1568 1568 1568 1570 1572 1573 1575 1577 1579 1582 1585 1587 1589 1592 1594
1580 1580 1580 1580 1579 1579 1579 1578 1576 1575 1573 1572 1568 1567 1565 1565 1564 1564 1564 1563 1565 1565 1562 1562 1563 1563 1564 1564 1564 1565 1565 1566 1564 1569 1571 1572 1574 1577 1580 1583 1586 1588 1590
1580 1580 1580 1579 1579 1578 1576 1575 1574 1574 1572 1570 1569 1566 1565 1563 1562 1561 1561 1561 1561 1561 1560 1558 1559 1559 1560 1560 1560 1561 1560 1562 1564 1564 1565 1567 1569 1572 1575 1578 1581 1584 1587
1578 1578 1578 1578 1576 1576 1574 1573 1572 1571 1571 1569 1568 1566 1563 1560 1558 1560 1560 1559 1559 1556 1558 1558 1556 1556 1554 1555 1556 1557 1557 1557 1558 1560 1561 1564 1565 1568 1571 1573 1576 1579 1582
1575 1575 1575 1575 1575 1573 1572 1572 1571 1570 1569 1568 1567 1565 1562 1559 1558 1557 1558 1557 1557 1557 1556 1555 1555 1553 1553 1551 1551 1552 1552 1553 1554 1555 1556 1559 1561 1564 1566 1569 1571 1574 1577
1572 1572 1573 1572 1572 1571 1572 1570 1570 1568 1568 1567 1566 1565 1562 1560 1559 1557 1555 1555 1555 1555 1554 1553 1550 1548 1547 1548 1547 1549 1549 1549 1550 1550 1551 1552 1554 1558 1562 1564 1567 1569 1572
1572 1572 1572 1570 1569 1569 1568 1569 1568 1566 1566 1565 1565 1563 1562 1562 1560 1557 1555 1554 1553 1551 1550 1549 1548 1543 1540 1540 1544 1544 1546 1547 1548 1548 1548 1549 1551 1555 1557 1560 1563 1565 1568
1569 1570 1571 1569 1567 1567 1567 1565 1566 1564 1563 1563 1562 1561 1561 1559 1558 1556 1553 1552 1551 1548 1547 1545 1543 1536 1535 1541 1532 1536 1544 1545 1547 1546 1546 1547 1548 1551 1554 1556 1558 1561 1563
1568 1567 1568 1567 1565 1565 1565 1564 1563 1561 1561 1559 1558 1558 1558 1557 1556 1555 1553 1551 1549 1546 1545 1543 1540 1535 1524 1524 1533 1536 1542 1543 1543 1543 1545 1546 1547 1549 1550 1552 1554 1556 1559
1568 1568 1565 1565 1564 1563 1562 1561 1559 1558 1557 1557 1555 1555 1555 1554 1554 1553 1552 1550 1547 1545 1541 1539 1540 1536 1533 1531 1531 1537 1540 1541 1542 1541 1542 1543 1544 1546 1547 1548 1550 1552 1554
1565 1564 1564 1563 1562 1561 1559 1558 1556 1556 1555 1554 1553 1552 1552 1552 1551 1551 1550 1548 1545 1543 1540 1539 1538 1539 1537 1536 1536 1536 1537 1539 1539 1539 1540 1541 1542 1543 1545 1546 1547 1548 1550
1563 1562 1560 1561 1559 1556 1556 1554 1553 1552 1552 1552 1552 1551 1549 1548 1547 1548 1547 1545 1545 1544 1541 1540 1540 1538 1537 1538 1537 1535 1534 1534 1536 1536 1536 1537 1539 1540 1542 1544 1545 1546 1546
1559 1557 1556 1554 1552 1552 1551 1551 1551 1552 1550 1549 1549 1546 1544 1544 1544 1546 1546 1545 1544 1543 1542 1539 1538 1539 1534 1535 1535 1533 1533 1531 1530 1529 1530 1531 1533 1536 1538 1541 1541 1541 1542
1553 1552 1551 1550 1549 1548 1548 1547 1547 1547 1546 1545 1544 1543 1542 1541 1542 1544 1542 1542 1541 1540 1539 1537 1537 1535 1533 1532 1532 1531 1529 1528 1526 1523 1523 1532 1533 1532 1535 1537 1539 1538 1537
1550 1549 1548 1547 1547 1546 1546 1545 1545 1545 1544 1544 1543 1540 1540 1539 1539 1539 1538 1538 1537 1536 1535 1533 1533 1531 1531 1529 1528 1527 1527 1527 1521 1515 1518 1514 1526 1526 1531 1533 1534 1535 1534
1549 1548 1547 1546 1545 1545 1544 1544 1543 1542 1542 1541 1541 1540 1539 1537 1536 1535 1534 1533 1532 1531 1530 1530 1528 1529 1528 1527 1526 1526 1525 1524 1524 1518 1519 1523 1521 1521 1526 1528 1530 1531 1530
1549 1548 1547 1546 1545 1544 1543 1543 1543 1542 1541 1540 1539 1538 1536 1535 1534 1532 1531 1530 1528 1527 1525 1524 1524 1524 1524 1522 1522 1522 1523 1521 1519 1518 1516 1516 1521 1524 1527 1525 1525 1525 1524
1548 1548 1548 1547 1546 1545 1544 1543 1542 1541 1541 1540 1539 1539 1536 1533 1531 1529 1527 1525 1524 1523 1522 1521 1521 1520 1519 1518 1518 1517 1517 1518 1518 1517 1515 1516 1519 1523 1523 1520 1519 1518 1516
1551 1551 1550 1549 1549 1548 1547 1545 1546 1544 1542 1541 1540 1540 1538 1535 1534 1531 1528 1525 1522 1520 1520 1519 1518 1517 1517 1517 1516 1517 1515 1515 1514 1514 1512 1512 1515 1515 1516 1513 1510 1509 1509
1553 1553 1553 1552 1551 1550 1550 1548 1547 1547 1545 1544 1543 1541 1540 1537 1534 1533 1531 1529 1525 1524 1521 1521 1519 1518 1518 1517 1517 1517 1515 1514 1512 1511 1510 1509 1509 1507 1510 1508 1506 1502 1500
1555 1555 1554 1553 1553 1551 1551 1550 1550 1550 1548 1546 1545 1544 1541 1538 1536 1533 1533 1530 1528 1525 1524 1523 1522 1521 1520 1518 1518 1517 1516 1513 1511 1509 1508 1508 1506 1505 1504 1501 1501 1498 1497
1558 1558 1557 1556 1554 1554 1553 1553 1553 1554 1553 1550 1548 1545 1543 1541 1539 1536 1535 1533 1532 1529 1526 1525 1523 1522 1521 1520 1518 1516 1515 1514 1513 1511 1508 1507 1507 1503 1500 1498 1498 1496 1495
1560 1559 1557 1557 1556 1555 1554 1554 1553 1555 1553 1553 1550 1548 1545 1543 1541 1538 1536 1535 1534 1531 1528 1527 1525 1523 1522 1521 1518 1517 1516 1513 1511 1510 1507 1507 1504 1501 1498 1497 1497 1494 1492
Wind_Speed
9 6 5 4 4 3 4 4 4 4 7 6 8 9 10 7 7 6 11 11 12 12 9 9 8 5 7 6 6 6 8 13 15 17 19 20 20 19 19 19 19 19 17
4 5 4 3 2 3 4 5 7 8 9 9 10 11 10 10 10 9 10 14 13 13 12 11 12 10 6 6 6 8 9 12 14 16 19 20 20 21 20 20 20 20 18
3 11 3 4 3 4 8 5 8 9 10 13 12 13 13 11 12 11 11 10 10 12 13 12 14 12 12 11 9 10 12 13 14 15 18 20 21 22 23 22 21 21 20
3 3 2 5 7 5 6 7 9 10 12 13 15 16 15 14 12 13 12 12 14 17 13 12 12 12 14 16 17 15 10 15 15 15 16 18 20 22 22 22 23 23 22
5 5 4 6 8 7 8 9 10 9 11 12 15 12 13 16 13 12 15 10 13 13 15 15 14 15 15 16 16 14 16 15 18 17 17 18 20 22 24 24 24 24 25
8 9 8 9 9 9 11 10 13 11 10 9 11 12 12 12 12 12 13 11 12 12 11 15 14 17 17 17 17 16 16 18 20 19 20 19 19 21 23 25 26 27 27
9 9 8 9 10 11 11 9 11 10 10 10 12 11 14 12 11 8 9 10 12 9 11 12 15 16 18 20 17 16 17 17 18 19 23 21 20 19 20 22 24 26 28
11 9 10 11 13 11 10 12 10 10 8 7 9 12 10 7 4 7 9 12 9 8 10 11 10 15 17 11 12 11 12 18 16 20 19 23 20 21 22 21 21 24 26
6 7 9 8 9 8 7 10 9 9 7 9 7 6 11 12 14 10 7 3 8 11 11 13 15 14 18 15 10 12 10 14 15 18 20 23 24 25 24 21 21 22 25
7 7 9 10 9 7 10 11 12 12 10 8 9 8 9 11 12 13 9 10 10 11 10 11 13 12 15 12 12 12 9 10 12 15 16 16 19 22 23 23 22 20 24
4 8 8 10 9 9 9 11 12 12 13 12 11 12 10 11 11 12 15 12 10 4 10 6 9 17 13 13 13 8 9 8 9 14 17 24 21 24 23 23 23 22 24
6 2 4 8 9 8 10 13 13 14 13 14 13 13 10 11 12 12 13 13 12 11 9 4 9 13 13 8 10 10 10 8 11 11 14 19 24 26 23 22 23 25 26
5 7 7 7 8 11 12 12 15 13 12 12 13 11 10 9 11 11 10 12 12 12 12 9 6 9 10 7 5 12 13 10 10 10 12 14 16 19 21 22 23 24 26
6 5 9 10 12 12 13 14 15 12 9 11 12 11 11 12 13 13 11 11 13 12 8 6 2 5 3 7 8 16 14 13 12 13 14 14 14 14 15 17 20 22 24
9 8 9 11 15 14 12 15 11 10 11 10 10 13 12 13 12 11 14 10 10 12 11 8 8 9 5 6 9 10 13 16 16 16 14 15 15 14 14 14 15 19 21
11 12 13 13 13 13 13 12 9 9 11 13 10 12 15 11 11 10 11 9 10 11 14 12 14 11 11 13 9 9 11 20 20 18 17 16 14 12 11 12 12 14 18
14 16 16 16 16 14 13 13 11 13 13 14 12 13 12 10 7 8 13 14 14 14 14 14 12 11 7 8 8 8 9 10 17 23 19 16 13 12 14 13 13 14 15
10 6 6 7 7 7 6 6 6 6 8 8 9 10 9 7 9 9 11 13 11 12 14 18 16 15 12 11 13 9 6 9 16 14 16 21 5 11 16 14 15 17 18
6 7 7 7 6 6 5 6 6 5 4 6 8 7 7 8 10 12 13 13 14 15 14 16 15 13 13 10 8 6 9 9 3 10 7 4 10 16 20 17 17 20 20
6 6 6 7 8 6 5 5 5 5 6 8 8 8 12 12 13 14 14 15 15 16 17 17 17 16 14 10 12 11 8 8 10 9 3 5 5 4 8 10 15 18 20
9 12 13 13 12 11 11 9 10 8 8 9 12 12 15 13 12 14 14 15 17 15 13 14 13 15 12 10 10 9 10 13 13 11 12 16 18 10 7 7 13 15 16
14 15 15 16 16 17 15 15 16 14 15 15 15 16 15 15 17 19 18 16 14 11 10 11 10 9 7 11 8 9 9 10 15 19 21 16 21 13 8 11 10 14 18
14 15 16 17 17 17 15 16 18 14 15 16 15 15 14 15 14 14 16 16 17 18 16 13 12 11 7 5 6 8 10 11 11 11 13 16 14 15 15 19 21 14 14
15 14 15 16 16 16 16 19 18 13 15 17 19 17 17 19 18 15 16 17 16 17 16 14 11 9 6 6 6 7 8 11 10 11 13 9 11 12 15 15 22 14 14
13 12 11 11 11 12 11 12 13 10 11 10 16 14 14 15 16 16 14 14 12 15 16 17 16 12 12 11 8 6 4 7 10 9 11 8 9 14 16 8 8 16 30
11 9 10 10 9 10 9 7 11 7 8 9 12 14 16 15 14 12 12 12 11 10 10 9 11 11 12 13 12 11 8 10 11 8 7 11 13 14 13 9 16 13 14
Wind_Direction
112 143 154 165 164 205 215 231 236 253 257 280 286 283 285 283 285 273 280 282 290 293 286 277 270 290 272 248 243 236 229 219 222 222 219 218 216 214 210 210 208 210 211
155 138 156 174 194 234 243 250 258 257 266 277 275 272 283 273 271 266 263 274 284 295 280 274 277 274 273 263 252 248 237 232 225 227 226 223 219 219 218 213 214 215 214
184 129 185 207 214 247 283 283 280 283 274 281 287 283 276 267 264 261 258 259 275 280 281 280 277 267 257 247 257 262 248 233 228 227 230 226 224 221 221 218 217 217 217
197 186 236 253 237 254 270 280 277 280 284 283 292 302 278 286 266 263 257 259 258 277 267 282 282 276 264 249 257 259 257 240 231 227 228 232 228 224 222 221 220 221 218
272 261 257 259 285 276 281 287 283 284 291 293 299 290 296 284 277 266 274 261 262 259 280 275 274 272 272 250 253 257 255 240 229 225 226 227 227 226 225 225 225 225 221
262 260 260 271 282 278 275 269 281 288 289 300 310 302 313 296 279 280 274 270 267 270 263 266 270 273 280 260 252 251 249 243 229 234 231 225 226 227 227 228 227 228 228
255 263 266 267 266 268 283 292 305 323 318 325 316 319 315 293 262 290 282 278 275 274 261 271 272 273 267 257 257 254 248 241 240 240 237 224 220 226 231 230 231 232 230
251 249 255 257 263 277 301 304 310 305 308 308 329 328 330 336 245 327 287 293 286 271 289 276 263 266 249 258 256 247 253 241 238 238 230 215 231 239 231 233 233 232 230
258 252 265 275 259 277 286 288 299 293 298 321 307 314 332 339 324 313 283 270 286 277 286 275 290 279 274 225 249 274 260 246 239 245 241 247 227 226 227 232 236 236 230
251 255 261 274 282 255 260 282 309 298 301 291 314 318 310 304 317 322 318 297 292 285 281 284 282 274 265 201 223 238 257 264 242 244 239 230 225 231 229 229 234 238 230
258 238 258 272 276 289 282 286 289 286 281 281 288 311 313 308 305 301 308 313 303 304 276 298 279 268 240 211 223 201 257 252 252 248 240 227 246 231 234 233 235 235 232
292 270 277 275 290 282 290 295 290 297 295 294 291 282 284 309 304 303 304 308 298 304 302 273 288 301 325 180 219 231 249 262 263 247 242 230 227 230 234 239 240 238 234
253 269 283 284 286 296 297 287 289 297 303 305 301 288 277 293 293 289 292 298 298 298 303 244 277 302 312 328 244 244 245 248 259 256 251 237 232 231 235 239 244 243 240
271 290 282 282 286 289 304 299 296 290 287 296 305 292 286 291 285 275 279 290 299 305 308 260 201 308 350 304 278 255 235 238 247 262 255 244 237 235 238 241 242 245 245
278 280 276 282 290 285 274 280 297 300 284 292 294 292 294 295 278 270 282 277 292 295 294 303 312 274 268 286 289 284 247 243 248 250 252 237 238 243 247 249 252 253 253
287 278 277 284 295 294 298 289 302 299 277 287 290 278 290 298 265 269 278 274 274 274 275 287 288 304 287 284 286 275 260 255 256 242 242 231 230 244 244 253 262 265 260
274 282 291 291 295 298 298 299 295 292 291 300 306 308 310 291 274 263 272 263 270 262 261 286 276 276 313 311 271 273 268 264 261 248 228 232 239 245 249 258 270 276 270
302 324 341 346 350 348 357 12 9 350 349 329 314 301 295 289 282 277 275 270 279 275 273 279 275 288 270 262 271 287 294 262 274 302 321 217 218 258 260 257 272 277 278
335 346 350 345 342 350 355 7 358 345 319 328 347 348 327 307 294 288 282 282 276 267 263 271 274 274 270 275 269 295 281 275 290 345 36 76 214 240 244 258 270 275 277
360 16 25 30 29 19 32 14 4 340 325 339 326 346 318 321 318 313 308 304 298 287 277 268 265 269 277 250 265 255 253 255 254 242 242 196 233 278 297 297 284 282 278
65 65 68 65 62 61 59 51 39 32 31 26 39 35 18 8 353 337 323 309 299 299 303 288 285 280 265 238 215 249 259 265 264 263 266 272 278 254 229 304 275 274 274
85 81 76 74 71 68 66 72 64 60 60 55 53 53 30 38 31 28 27 19 6 354 333 317 308 298 290 255 275 274 268 287 294 291 293 281 261 250 274 254 260 282 280
90 83 78 74 70 66 60 60 63 49 50 49 42 41 36 31 33 42 33 30 37 36 40 37 30 29 28 18 346 328 321 308 305 299 303 302 301 298 272 249 260 245 259
81 77 70 65 62 59 57 62 55 54 45 42 41 39 32 33 32 41 29 27 22 24 24 17 12 5 347 329 335 318 335 339 331 328 336 315 331 324 310 277 260 279 299
88 81 73 66 56 61 64 80 80 48 44 24 5 28 32 31 30 37 37 27 28 24 22 33 33 37 40 33 23 10 345 345 334 327 322 321 325 321 336 350 324 286 270
98 88 79 70 66 64 67 89 93 54 37 38 28 27 36 34 32 30 36 30 19 11 10 7 359 360 355 345 350 348 317 304 309 321 313 335 327 342 335 337 337 330 324